Tracking 19634 objects as of 21-May-2019
HD Live streaming from Space Station
objects crossing your sky now

THORAD AGENA D DEB

Track THORAD AGENA D DEB now!
10-day predictions


NORAD ID: 4857
Int'l Code: 1970-025EM
Perigee: 807.7 km
Apogee: 887.7 km
Inclination: 99.8 °
Period: 101.7 minutes
Semi major axis: 7218 km
RCS: 0.0497 m2 (small)
Launch date: April 8, 1970
Source: United States (US)
Launch site: AIR FORCE WESTERN TEST RANGE (AFWTR)

Note: This is SATELLITE DEBRIS
aabbcc
Your satellite tracking list
Your tracking list is empty




NASA's NSSDC Master Catalog

Two Line Element Set (TLE):
1  4857U 70025EM  19140.49101164 +.00000456 +00000-0 +25582-3 0  9999
2  4857 099.7641 104.1423 0055374 105.7228 255.0060 14.15516945456707
Source of the keplerian elements: AFSPC